sat.trackr.live / text

‹ back to catalog

STARLINK-31811

NORAD 60051 · 2024-112P

PAYLOAD ACTIVE UNKNOWN

§ Identity

Operator
Country
US
Launch date
2024-06-08
Launch site
AFWTR
Launch vehicle
Mass (kg)
RCS (m²)

Purposes: comms

External: N2YO · Heavens-Above · Gunter

§ Orbital elements

Epoch: 2026-09-10T08:42:08.105184Z

Period
88.78 min
Inclination
53.1513°
Eccentricity
0.0008887
Mean motion
16.21937946 rev/d
Perigee alt
208.4 km
Apogee alt
220.2 km
Semi-major
6,592.4 km
B*
3.8920e-3
RAAN
291.3360°
Arg perigee
174.8651°
Mean anomaly
185.2482°
Rev number
12,699

§ Raw data

STARLINK-318111 60051U 24112P   26253.36259381  .09088332  11746-4  38920-2 0  99972 60051  53.1513 291.3360 0008887 174.8651 185.2482 16.21937946126994

JSON: /api/v1/satellites/60051 · /tle

For live sub-satellite position, see the globe view (requires WebGL).

§ Visibility from observer

Set your observer location to see the next 7 days of passes ≥ 10°. The values pass through the URL so the page stays shareable.

No JS? Fill the form by hand. The geolocation button needs JavaScript.